Tracking 29969 objects as of 6-Dec-2024
HD Live streaming from Space Station
objects crossing your sky now

IRIDIUM 33 DEB

Track IRIDIUM 33 DEB now!
10-day predictions


NORAD ID: 35052
Int'l Code: 1997-051NY
Perigee: 765.8 km
Apogee: 780.4 km
Inclination: 86.3 °
Period: 100.2 minutes
Semi major axis: 7144 km
RCS: 0.0011 m2 (small)
Launch date: September 14, 1997
Source: United States (US)
Launch site: TYURATAM MISSILE AND SPACE COMPLEX (TTMTR)

Note: This is SATELLITE DEBRIS
Your satellite tracking list
Your tracking list is empty




NASA's NSSDC Master Catalog

Two Line Element Set (TLE):
1 35052U 97051NY  24341.52718835  .00001377  00000-0  45113-3 0  9995
2 35052  86.3332 179.4806 0010234 213.3211 146.7344 14.37747762819409
Source of the keplerian elements: AFSPC